This demonstration page uses our WeatherBlox Daily Observations layout. Learn more.

38.88101, -77.10428

Hourly Observations for November 8, 2019

Temp ( °F °C ) Dew Point ( °F °C ) Humidity (%) Winds ( mph kmh ) Pressure ( in mb ) Visibility ( mi km ) Precip ( " mm )
12:52 am 00:52 Cloudy 45 7.2 35 1.7 68 68 NNW 16 26 30.11 1020 10 16.0934 0 0
1:52 am 01:52 Cloudy 44 6.7 32 0 63 63 NNW 16 26 30.14 1021 10 16.0934 0 0
2:52 am 02:52 Mostly Clear 42 5.6 31 -0.6 65 65 NNW 13 20 30.14 1021 10 16.0934 0 0
3:52 am 03:52 Mostly Cloudy 41 5 30 -1.1 65 65 NNW 16 26 30.14 1021 10 16.0934 0 0
4:52 am 04:52 Mostly Cloudy 41 5 24 -4.4 51 51 NNW 16 26 30.17 1022 10 16.0934 0 0
5:52 am 05:52 Partly Cloudy 39 3.9 24 -4.4 55 55 NNW 18 30 30.21 1023 10 16.0934 0 0
6:52 am 06:52 Partly Cloudy 38 3.3 21 -6.1 51 51 NW 14 22 30.23 1024 10 16.0934 0 0
7:52 am 07:52 Partly Cloudy 39 3.9 22 -5.6 50 50 NNW 14 22 30.25 1025 10 16.0934 0 0
8:52 am 08:52 Mostly Sunny 40 4.4 22 -5.6 49 49 NNW 23 37 30.28 1025 10 16.0934 0 0
9:52 am 09:52 Mostly Sunny 42 5.6 22 -5.6 45 45 NNW 16 26 30.29 1026 10 16.0934 0 0
10:52 am 10:52 Partly Cloudy 42 5.6 21 -6.1 43 43 NNW 17 28 30.29 1026 10 16.0934 0 0
11:52 am 11:52 Mostly Cloudy 43 6.1 22 -5.6 43 43 NW 14 22 30.28 1025 10 16.0934 0 0
12:52 pm 12:52 Mostly Cloudy 44 6.7 22 -5.6 41 41 NNW 16 26 30.27 1025 10 16.0934 0 0
1:52 pm 13:52 Mostly Cloudy 43 6.1 19 -7.2 38 38 WNW 15 24 30.27 1025 10 16.0934 0 0
2:52 pm 14:52 Mostly Cloudy 43 6.1 19 -7.2 38 38 NNW 14 22 30.27 1025 10 16.0934 0 0
3:52 pm 15:52 Mostly Cloudy 42 5.6 19 -7.2 40 40 NW 14 22 30.28 1026 10 16.0934 0 0
4:52 pm 16:52 Mostly Cloudy 41 5 19 -7.2 41 41 NW 10 17 30.29 1026 10 16.0934 0 0
5:52 pm 17:52 Partly Cloudy 40 4.4 19 -7.2 43 43 WNW 13 20 30.32 1027 10 16.0934 0 0
6:52 pm 18:52 Mostly Cloudy 39 3.9 20 -6.7 46 46 WNW 10 17 30.35 1028 10 16.0934 0 0
7:52 pm 19:52 Partly Cloudy 39 3.9 20 -6.7 46 46 W 8 13 30.35 1028 10 16.0934 0 0
8:52 pm 20:52 Partly Cloudy 38 3.3 19 -7.2 46 46 WNW 12 19 30.37 1028 10 16.0934 0 0
9:52 pm 21:52 Partly Cloudy 37 2.8 18 -7.8 46 46 NW 10 17 30.39 1029 10 16.0934 0 0
10:52 pm 22:52 Mostly Cloudy 36 2.2 19 -7.2 50 50 NNW 10 17 30.37 1029 10 16.0934 0 0
11:52 pm 23:52 Mostly Cloudy 35 1.7 19 -7.2 52 52 NNW 10 17 30.37 1028 10 16.0934 0 0

Powered by AerisWeather